Dewpoint
70 71 71 70 70 70 70 70 70 70 70 70 70 69 69 70 69 69 68 68 67 66 64 63 63 63 62 61 62 63 57 63
69 70 71 71 70 69 69 69 69 69 70 69 68 68 69 69 68 68 67 66 66 65 63 63 62 62 62 61 63 62 56 57
68 68 70 70 70 70 69 69 69 69 69 68 67 68 68 68 68 67 67 66 65 64 63 62 62 62 62 63 63 58 56 65
68 68 68 68 69 70 69 69 69 69 69 68 67 67 67 67 67 66 66 65 65 64 63 62 62 60 60 62 59 57 57 65
68 68 68 68 68 68 68 69 69 68 68 67 66 66 66 66 65 65 64 65 63 62 62 61 61 60 59 60 59 58 57 65
68 68 68 69 68 67 68 68 68 68 67 66 65 65 64 64 64 63 62 62 61 61 61 61 61 61 61 61 61 59 59 65
67 69 69 68 68 68 67 67 67 67 67 66 65 64 64 64 63 63 62 62 61 60 61 62 62 61 62 62 61 59 59 64
65 67 68 67 67 67 66 66 66 66 66 65 65 65 64 64 63 63 63 62 61 62 62 62 63 64 64 62 61 60 56 63
64 65 66 66 66 66 66 65 66 66 66 66 65 66 64 64 63 63 62 63 62 62 64 64 64 64 64 63 63 61 59 60
64 64 65 65 65 65 65 65 66 65 66 67 65 65 66 64 64 63 62 61 63 62 63 63 64 65 65 64 64 64 62 60
63 64 64 64 65 64 64 65 65 65 66 66 66 66 66 65 63 64 62 62 62 62 62 63 64 64 64 64 65 65 65 64
63 65 65 64 66 65 64 65 65 65 66 66 67 66 66 66 64 63 63 62 62 62 62 63 63 64 63 65 65 65 65 64
63 64 65 65 64 66 64 64 65 65 66 67 67 67 66 66 65 63 63 61 61 61 61 62 63 64 63 61 61 63 63 63
63 64 65 65 64 65 66 65 65 66 67 68 67 67 67 66 65 63 63 61 61 62 62 62 62 63 61 59 56 59 59 62
63 64 66 65 65 64 65 65 65 65 66 67 68 67 67 66 66 64 63 61 61 62 63 62 61 61 61 59 56 55 55 57
63 63 66 66 66 64 63 64 63 65 65 66 66 67 67 66 66 65 63 62 61 62 63 62 61 60 60 61 59 57 53 52
62 63 64 66 66 65 63 63 64 64 64 65 65 66 66 66 66 65 63 63 62 62 62 62 62 61 60 59 57 57 55 50
61 62 62 65 65 65 64 63 63 63 63 63 64 65 66 66 65 65 64 63 63 63 63 63 62 61 60 59 57 55 53 53
60 61 61 63 65 65 65 63 63 63 63 63 63 63 65 65 65 65 64 64 64 64 63 63 62 61 60 58 55 53 50 48
60 61 61 63 64 64 65 64 63 63 63 63 63 63 65 65 65 64 64 63 64 64 63 62 61 61 58 50 51 47 46 45
Lifted_Index
-5 -5 -5 -5 -5 -5 -5 -5 -6 -6 -6 -6 -5 -4 -3 -3 -3 -2 -1 -0 1 2 2 3 4 4 4 4 2 1 0 -1
-5 -5 -5 -5 -5 -5 -5 -5 -5 -6 -6 -5 -4 -4 -3 -3 -2 -1 -0 1 1 2 3 3 4 4 4 4 3 2 1 -0
-4 -5 -5 -5 -4 -4 -5 -5 -5 -5 -5 -5 -4 -3 -3 -2 -1 -1 0 1 2 3 3 4 4 4 3 3 2 2 1 0
-4 -4 -5 -4 -4 -4 -4 -5 -5 -5 -5 -4 -4 -3 -2 -2 -1 -0 1 2 2 3 3 3 3 3 2 2 2 2 1 -0
-4 -4 -4 -4 -4 -4 -4 -4 -4 -5 -4 -4 -3 -2 -2 -1 -0 1 1 2 2 3 3 3 2 1 1 1 1 1 1 -0
-4 -4 -4 -4 -4 -4 -4 -4 -4 -4 -4 -3 -3 -2 -1 -1 -0 1 2 2 3 3 2 2 0 -1 -1 -1 -0 0 0 -1
-3 -3 -4 -4 -3 -3 -3 -3 -3 -3 -3 -3 -2 -1 -1 -1 -0 0 1 2 3 2 1 -1 -1 -2 -2 -1 -1 -0 -0 -1
-3 -3 -3 -3 -3 -3 -3 -3 -3 -3 -3 -2 -2 -2 -2 -1 -1 -1 0 1 2 1 -1 -2 -2 -2 -2 -2 -2 -1 -1 -0
-3 -3 -3 -3 -3 -2 -2 -2 -2 -3 -2 -2 -2 -2 -2 -2 -2 -2 -1 -1 -0 -1 -2 -2 -3 -3 -3 -3 -3 -2 -1 -1
-4 -3 -3 -3 -2 -2 -2 -2 -2 -3 -3 -3 -2 -3 -3 -4 -3 -3 -2 -2 -2 -2 -2 -3 -3 -3 -3 -3 -3 -3 -3 -2
-4 -4 -4 -3 -3 -2 -2 -2 -2 -3 -3 -3 -3 -3 -4 -4 -4 -4 -3 -3 -3 -3 -3 -3 -3 -4 -4 -4 -4 -3 -3 -3
-5 -5 -4 -4 -3 -3 -3 -3 -3 -3 -4 -4 -4 -4 -4 -5 -5 -4 -3 -3 -3 -3 -3 -3 -3 -3 -4 -4 -4 -3 -3 -3
-5 -5 -5 -4 -4 -4 -4 -4 -4 -4 -4 -5 -5 -5 -4 -5 -5 -4 -4 -3 -3 -3 -3 -3 -3 -4 -4 -4 -4 -3 -3 -3
-5 -5 -5 -5 -5 -5 -5 -5 -5 -5 -5 -5 -5 -5 -5 -5 -5 -5 -4 -3 -3 -3 -3 -3 -4 -4 -4 -4 -3 -3 -3 -3
-5 -5 -6 -6 -5 -5 -5 -6 -6 -5 -5 -6 -6 -6 -6 -6 -5 -5 -4 -4 -3 -3 -3 -3 -4 -4 -4 -4 -3 -2 -2 -2
-5 -5 -6 -6 -6 -5 -5 -5 -6 -6 -6 -6 -6 -6 -6 -6 -5 -5 -4 -4 -3 -3 -3 -3 -4 -4 -4 -4 -3 -2 -2 -2
-4 -5 -5 -6 -6 -6 -5 -5 -5 -5 -6 -6 -6 -6 -6 -6 -5 -5 -5 -4 -4 -3 -3 -3 -4 -4 -4 -4 -3 -2 -2 -2
-4 -4 -4 -5 -5 -5 -5 -5 -5 -5 -5 -5 -6 -6 -6 -6 -5 -5 -5 -5 -4 -3 -3 -3 -4 -4 -4 -4 -3 -3 -2 -2
-4 -4 -4 -4 -4 -5 -5 -5 -5 -4 -5 -5 -5 -6 -6 -6 -5 -5 -5 -5 -4 -4 -3 -4 -4 -4 -4 -4 -3 -3 -3 -2
-3 -4 -4 -4 -4 -4 -4 -5 -4 -4 -4 -5 -5 -5 -5 -6 -5 -5 -4 -4 -4 -4 -4 -4 -5 -5 -4 -4 -4 -3 -3 -2